Regional Weather Roundup
Issued by NWS Wakefield, VA

Home | Current Version | Previous Version | Graphics & Text | Print | Product List | Glossary On
Versions: 1 2 3 4 5 6 7 8 9 10 11 12 13 14 15 16 17 18 19 20 21 22 23 24 25 26 27 28 29 30 31 32 33 34 35 36 37 38 39 40 41 42 43 44 45 46 47 48 49 50
000
ASUS41 KAKQ 252016
RWRAKQ

REGIONAL WEATHER ROUNDUP
NATIONAL WEATHER SERVICE WAKEFIELD VA
400 PM EDT MON SEP 25 2017

Note: "fair" indicates few or no clouds below 12,000 feet with no
significant weather and/or obstructions to visibility. * = Denotes
station may not report precipitation (e.g., rain,snow,etc.),
thunder or fog.

VAZ042-051-052>054-056-252100-
NORTHERN VIRGINIA

CITY           SKY/WX    TMP DP  RH WIND       PRES   REMARKS
WASH NATIONAL  PTSUNNY   90  67  46 E3        29.99F
DULLES         PTSUNNY   88  67  49 E7        29.99F
FORT BELVOIR   CLOUDY    89  67  48 SE8       29.98F
QUANTICO       PTSUNNY   89  68  49 NE8       29.99F
FREDERICKSBRG* MOSUNNY   86  68  54 NE8       29.98S
STAFFORD*      MOSUNNY   86  66  52 E5        30.02F
WARRENTON      SUNNY     88  60  38 E7        29.99F
CULPEPER*      PTSUNNY  N/A N/A N/A NE7       29.99F
MANASSAS*      MOSUNNY   88  67  49 E7        29.99F
LEESBURG*      CLOUDY    90  68  48 E7        30.01F
WINCHESTER     PTSUNNY   82  66  57 CALM      30.02F
FRONT ROYAL*   PTCLDY    84  68  58 NE5       30.01F
LURAY*         MOCLDY    86  64  48 E10       30.01F
$$

VAZ048-049-060>072-079>083-252100-
CENTRAL AND SOUTH CENTRAL VIRGINIA

CITY           SKY/WX    TMP DP  RH WIND       PRES   REMARKS
RICHMOND       PTSUNNY   86  65  49 E12       29.97F
CHESTERFIELD*  NOT AVBL
PETERSBURG*    SUNNY     86  59  40 NE14      29.98S
HANOVER        MOSUNNY   87  66  49 E6        29.99S
TAPPAHANNOCK*  MOSUNNY   88  53  30 NE7       29.99F
QUINTON*       FAIR      85  65  52 E12G23    29.97S
CHARLOTTSVILLE CLOUDY    87  66  49 NE6       30.00F
GORDONSVILLE*  MOCLDY    87  68  53 NE6       29.99F
ORANGE*        CLOUDY    84  64  51 E7        30.00S
LOUISA*          N/A     86  66  51 NE5       29.99F
BUMPASS*       FAIR      85  67  53 N6        29.99F
FARMVILLE*     MOSUNNY   87  67  50 NE9G17    29.96F
CREWE*         FAIR      85  66  52 E7        29.97F
FORT PICKETT*  FAIR      85  64  48 NE14      29.97F
CHASE CITY*    FAIR      85  64  48 NE9G16    29.97F
CLARKSVILLE*   FAIR      86  63  45 NE7       29.96F
SOUTH HILL*    MOSUNNY   85  68  57 NE7       30.01F
LAWRENCEVILLE* MOCLDY    83  65  55 NE7       29.96F
EMPORIA*       MOSUNNY   82  68  61 NE9       29.96F
$$

VAZ088>098-252100-
SOUTHEAST VIRGINIA

CITY           SKY/WX    TMP DP  RH WIND       PRES   REMARKS
NORFOLK        CLOUDY    75  69  81 NE15      29.96F
VIRGINIA BEACH PTSUNNY   75  67  76 NE13      29.94F
NORFOLK NAVAL  CLOUDY    76  67  73 NE12      29.98F
WEST POINT*    SUNNY     82  64  54 E7        29.99S
SALUDA*        FAIR      80  71  72 E6        29.98S
NEWPORT NEWS   CLOUDY    78  69  73 E13       29.98F
LANGLEY AFB    MOSUNNY   78  69  74 E16       29.97F
FORT EUSTIS    MOSUNNY   83  70  65 E7        29.95F
WILLIAMSBURG*  SUNNY     86  72  62 CALM      29.98F
HR EXEC AP*    CLOUDY    77  68  73 NE10G18   29.97F
FRANKLIN*      MOSUNNY   79  67  66 E13       29.96F
US460-WAKEFLD  MOSUNNY   82  69  64 VRB5G16   29.96F
$$

VAZ020-022-025-037-045-252100-
WEST CENTRAL AND SOUTHWEST VIRGINIA

CITY           SKY/WX    TMP DP  RH WIND       PRES   REMARKS
STAUNTON*      PTSUNNY   85  65  50 SE5       30.05F
WAYNESBORO*    CLOUDY    83  65  56 NE8       30.05F
HOT SPRINGS VA CLOUDY    73  57  57 CALM      30.19F
LYNCHBURG      PTSUNNY   83  64  52 N9        30.01F
DANVILLE       MOSUNNY   86  66  51 NE8       29.97F
SOUTH BOSTON*  FAIR      87  60  41 E8G16     29.96F
MARTINSVILLE   PTSUNNY   83  64  52 N6        30.02F
ROANOKE        CLOUDY    84  63  49 N8        30.04F
BLACKSBURG     MOSUNNY   78  64  61 NE5       30.11F
DUBLIN*        CLOUDY    78  63  60 N6        30.10F
MARION*        MOSUNNY   77  55  47 NE8       30.12F
HILLSVILLE*    MOSUNNY   75  59  58 N7        30.10F
RICHLANDS*     FAIR      82  55  40 SE5       30.10F
WISE*          PTSUNNY   81  54  39 SE3       30.11F
ABINGDON*      MOSUNNY   84  59  41 SE10      30.06F
$$

MDZ021>025-VAZ099-100-252100-
SOUTHERN MARYLAND AND THE DELMARVA PENINSULA

CITY           SKY/WX    TMP DP  RH WIND       PRES   REMARKS
PATUXENT RIVER MOSUNNY   86  66  51 N8        29.98F
BAY BRIDGE APT SUNNY     84  66  54 N7        29.99F
LEONARDTOWN    SUNNY     82  64  54 NE5       30.00F
DOVER          MOSUNNY   82  64  54 E9        29.99F
GEORGETOWN     SUNNY     82  65  56 E10       30.01F
EASTON         NOT AVBL
CAMBRIDGE      SUNNY     86  68  54 NE7       29.98F
SALISBURY      SUNNY     84  67  56 NE10      29.99S
OCEAN CITY     CLOUDY    71  69  93 E8        30.02S
WALLOPS ISLAND PTSUNNY   73  70  90 NE14      30.00F
ACCOMACK*      CLOUDY    74  70  85 E14       29.99S
$$

NCZ012>017-030>032-252100-
NORTH CENTRAL AND EASTERN NORTH CAROLINA

CITY           SKY/WX    TMP DP  RH WIND       PRES   REMARKS
ROANOKE RAPIDS FAIR      81  68  65 NE8       29.94F
RALEIGH        PTSUNNY   82  67  60 NE14      29.95F
ELIZABETH CITY CLOUDY    76  71  85 N14       29.93S
AHOSKIE*       PTSUNNY   79  68  68 N9        29.94F
EDENTON*       CLOUDY    80  70  72 NE12      29.93S
CURRITUCK*     CLOUDY    74  69  82 NE14G20   29.95S
KILL DEVIL HLS CLOUDY    72  66  83 N7G17     29.91F
MANTEO         CLOUDY    73  69  87 NE17G24   29.91F
CAPE HATTERAS  CLOUDY    77  73  87 NE15G26   29.84F
TARBORO*       NOT AVBL
GOLDSBORO      PTSUNNY   81  73  76 N10       29.89F
WASHINGTON     CLOUDY    82  70  65 NE15      29.90F
GREENVILLE     MOSUNNY   81  68  65 NE10      29.93F
NEW BERN       CLOUDY    79  72  79 NE14G22   29.88F
WILMINGTON     CLOUDY    81  71  71 N13       29.85F
$$

VAZ048-252100-
ELSEWHERE

CITY           SKY/WX    TMP DP  RH WIND       PRES   REMARKS
HARRISBURG PA  MOSUNNY   88  76  67 SW5       29.99F HX  99
BALTIMORE      PTSUNNY   88  65  46 NE8       29.99F
ANNAPOLIS      SUNNY     88  68  51 CALM      29.99F
ANDREWS AFB    SUNNY     86  65  49 E7        29.99F
PHILADELPHIA   MOSUNNY   91  68  46 E9        29.98F HX  95
HENDERSON NC   MOSUNNY   82  63  51 NE10G17   29.97S
GREENSBORO     CLOUDY    82  64  54 NE9       29.98F
ROCKY MOUNT    CLOUDY    81  68  64 NE13      29.93F
$$

VAZ100-252100-
MARINE

STATION/POSITION TIME  TEMP    WIND        PRES    WAVE   SWELL
                       AIR SEA DIR/SP/G            HT/PER HT/PER
                 (UTC) (F)     (DEG/KT/KT) (MB)    (FT/S) (FT/S)
BRANDYWINE LGT   1942   77     110/ 10/ 11 1016.6F
CAPE MAY NJ      1948   75 74  100/ 11/ 14 1015.8F
LEWES DE         1942   71 75   90/  8/ 11 1016.2F
15NM E FENWICK I 1950   68 72   60/ 12/ 14 1016.6F   3/14   3/14
OCEAN-CITY-INLET 1942   71 74   70/  8/ 10 1016.8R
WACHAPREAGUE VA  1942   72 78   70/ 11/ 16 1015.8R
THOMAS POINT MD  2000   81 79   40/  4/  4   N/A
GOOSES REEF MD   2000   80 78  350/  6/  6 1016.1    0
COVE POINT MD    1942   79     350/ 11/ 13 1016.0F
SOLOMONS ISLAND  1942   83 78   30/  5/  7 1014.9F
BISHOPS HEAD MD  1942   83 81   70/  9/ 13 1015.6F
PINEY POINT MD   1948           80/  8/ 11   N/A
POTOMAC MD       2000   81 78   40/ 10/ 10 1014.4    0
CAMBRIDGE MD     1942   84 80              1016.4F
LEWISETTA VA     1942   78 79  120/  4/  4 1015.2F
RAPPAHANNOCK LGT 1942           70/ 12/ 13 1015.9F
STINGRAY PT      2000   77 77  130/  8/ 10 1015.6    1
YORK RVR RNG VA  1942   75      90/ 10/ 13 1015.7F
YORKTOWN VA      1942   75 78   90/ 12/ 13 1014.9F
JAMESTOWN VA     2000      80   70/  8/ 12   N/A     0
DOMINION TERM VA 1942   74      70/ 12/ 16 1015.2F
KIPTOPEKE VA     1942      76   80/ 11/ 14   N/A
CHES BAY BRIDGE  1942   72 76   60/ 17/ 19 1014.6F
CAPE HENRY VA    1942   72      30/ 17/ 19   N/A
WILLOUBY STN VA  1942   74      60/ 13/ 15 1015.0F
S CRANEY ISL VA  1942   74      50/ 15/ 16 1014.6F
CAPE HENRY BUOY  1930      74                N/A     5/14   3/14
1ST LANDING BUOY 2000   73 76              1014.6    3/ 4
64NM E OF VA BCH 1950   71 70   40/ 17/ 21 1013.4F  12/15  11/15
DUCK PIER NC     1942   72 77   30/ 19/ 23 1012.9F
44100 DUCK FRF   1905      75                N/A     7/13   5/13
44056 DUCK FRF   1900      76                N/A     8/15   5/15
OREGON INLET NC  1942   73 76   20/ 18/ 23 1011.8F
HATTERAS NC      1942   76 77   30/ 18/ 25 1010.5F
DIAMOND SHLS NC  1950   75 78   20/ 25/ 31 1008.7F  13/14  11/14
CAPE LOOKOUT NC  2000   78      10/ 18/ 23 1009.4F
$$



USA.gov is the U.S. government's official web portal to all federal, state and local government web resources and services.